W0DXV Weather Reports


Display with metric or nautical units.
time (UTC)temp
F
wind
direction
speed
MPH
gust
MPH
rain 1hr
in
rain 24hr
in
rain mn
in
humidity
%
barometer
mb
20260901160822 89 261 4.0 5.0 0.00 0.00 0.00 61 1015.8
20260901160318 89 285 2.0 2.0 0.00 0.00 0.00 64 1015.9
20260901155817 89 258 3.0 3.0 0.00 0.00 0.00 62 1015.9
20260901155312 89 355 3.0 3.0 0.00 0.00 0.00 64 1016.1
20260901154808 88 221 1.0 1.0 0.00 0.00 0.00 65 1016.0
20260901154302 88 243 2.0 3.0 0.00 0.00 0.00 65 1016.2
20260901153756 89 241 1.0 1.0 0.00 0.00 0.00 64 1016.2
20260901153251 89 247 1.0 1.0 0.00 0.00 0.00 65 1016.3
20260901152750 88 282 1.0 1.0 0.00 0.00 0.00 66 1016.2
20260901152249 88 277 3.0 3.0 0.00 0.00 0.00 64 1016.2
20260901151744 88 262 3.0 3.0 0.00 0.00 0.00 66 1016.3
20260901151244 87 242 1.0 2.0 0.00 0.00 0.00 66 1016.4
20260901150744 86 252 4.0 5.0 0.00 0.00 0.00 67 1016.6
20260901150242 87 189 1.0 2.0 0.00 0.00 0.00 67 1016.2
20260901145740 88 189 2.0 2.0 0.00 0.00 0.00 69 1016.6
20260901145234 86 242 0.0 1.0 0.00 0.00 0.00 71 1016.5
20260901144730 85 267 2.0 2.0 0.00 0.00 0.00 70 1016.6
20260901144225 86 258 3.0 3.0 0.00 0.00 0.00 69 1016.6
20260901143720 85 181 1.0 1.0 0.00 0.00 0.00 73 1016.6
20260901143216 86 255 0.0 1.0 0.00 0.00 0.00 73 1016.2
20260901142713 86 269 0.0 0.0 0.00 0.00 0.00 72 1016.3
20260901142211 86 267 1.0 1.0 0.00 0.00 0.00 73 1016.4
20260901141707 85 264 0.0 0.0 0.00 0.00 0.00 73 1016.5
20260901141201 83 248 1.0 1.0 0.00 0.00 0.00 78 1016.4
20260901140700 82 242 0.0 1.0 0.00 0.00 0.00 80 1016.6
20260901140159 81 225 0.0 0.0 0.00 0.00 0.00 82 1016.3
20260901135654 81 266 1.0 1.0 0.00 0.00 0.00 81 1016.4
20260901135148 81 238 1.0 1.0 0.00 0.00 0.00 82 1016.4
20260901134644 80 253 0.0 0.0 0.00 0.00 0.00 83 1016.5
20260901134139 80 220 0.0 0.0 0.00 0.00 0.00 87 1016.4
20260901133638 79 212 1.0 1.0 0.00 0.00 0.00 87 1016.3
20260901133137 78 233 0.0 0.0 0.00 0.00 0.00 88 1016.2
20260901132632 78 204 0.0 0.0 0.00 0.00 0.00 90 1016.4
20260901132132 77 204 0.0 1.0 0.00 0.00 0.00 91 1016.3
20260901131632 77 204 1.0 1.0 0.00 0.00 0.00 92 1016.3
20260901131126 76 183 0.0 0.0 0.00 0.00 0.00 94 1016.4
20260901130621 74 183 0.0 0.0 0.00 0.00 0.00 97 1016.5
20260901130120 74 183 0.0 0.0 0.00 0.00 0.00 98 1016.3
20260901125618 73 183 0.0 0.0 0.00 0.00 0.00 99 1016.2
20260901125113 73 183 0.0 0.0 0.00 0.00 0.00 99 1016.4
20260901124608 72 183 0.0 0.0 0.00 0.00 0.00 99 1016.3
20260901124103 72 183 0.0 0.0 0.00 0.00 0.00 99 1016.4
20260901123602 72 183 0.0 0.0 0.00 0.00 0.00 99 1016.3
20260901123057 72 183 0.0 0.0 0.00 0.00 0.00 99 1016.4
20260901122555 71 183 0.0 0.0 0.00 0.00 0.00 99 1016.2
20260901122049 70 183 0.0 0.0 0.00 0.00 0.00 99 1016.3
20260901121550 70 183 0.0 0.0 0.00 0.00 0.00 99 1016.2
20260901121045 70 183 0.0 0.0 0.00 0.00 0.00 99 1016.1
20260901120544 70 183 0.0 0.0 0.00 0.00 0.00 99 1016.1
20260901120040 70 183 0.0 0.0 0.00 0.00 0.00 99 1016.1
20260901115535 70 183 0.0 1.0 0.00 0.00 0.00 99 1015.9
20260901115033 69 188 0.0 0.0 0.00 0.00 0.00 99 1016.1
20260901114528 69 188 0.0 0.0 0.00 0.00 0.00 99 1015.9
20260901114026 69 188 0.0 0.0 0.00 0.00 0.00 99 1015.9
20260901113526 69 188 1.0 1.0 0.00 0.00 0.00 99 1015.8
20260901113022 69 188 0.0 0.0 0.00 0.00 0.00 99 1015.7
20260901112516 69 188 0.0 0.0 0.00 0.00 0.00 99 1015.6
20260901112011 69 188 0.0 0.0 0.00 0.00 0.00 99 1015.7
20260901111509 69 188 0.0 0.0 0.00 0.00 0.00 99 1015.4
20260901111008 69 188 0.0 0.0 0.00 0.00 0.00 99 1015.6
20260901110504 69 188 0.0 0.0 0.00 0.00 0.00 99 1015.4
20260901105959 69 188 0.0 0.0 0.00 0.00 0.00 99 1015.3
20260901105456 69 188 0.0 0.0 0.00 0.00 0.00 99 1015.2
20260901104955 69 188 0.0 0.0 0.00 0.00 0.00 99 1015.1
20260901104451 69 188 0.0 0.0 0.00 0.00 0.00 99 1015.0
20260901103952 69 188 0.0 0.0 0.00 0.00 0.00 99 1015.2
20260901103446 69 188 0.0 0.0 0.00 0.00 0.00 99 1015.0
20260901102942 69 188 0.0 0.0 0.00 0.00 0.00 99 1015.1
20260901102436 70 188 0.0 0.0 0.00 0.00 0.00 99 1015.0
20260901101931 70 188 0.0 0.0 0.00 0.00 0.00 99 1015.2
20260901101426 70 188 0.0 0.0 0.00 0.00 0.00 99 1015.0
20260901100926 69 188 0.0 0.0 0.00 0.00 0.00 99 1014.9
20260901100420 69 188 0.0 0.0 0.00 0.00 0.00 99 1015.0
20260901095914 69 188 0.0 0.0 0.00 0.00 0.00 99 1014.7
20260901095413 69 188 0.0 0.0 0.00 0.00 0.00 99 1014.8
20260901094906 69 188 0.0 0.0 0.00 0.00 0.00 99 1015.0
20260901094400 70 188 0.0 0.0 0.00 0.00 0.00 99 1015.0
20260901093855 70 188 0.0 0.0 0.00 0.00 0.00 99 1015.0
20260901093354 70 188 0.0 0.0 0.00 0.00 0.00 99 1015.0
20260901092851 70 188 0.0 0.0 0.00 0.00 0.00 99 1014.9
20260901092346 70 188 0.0 0.0 0.00 0.00 0.00 99 1015.0
20260901091842 70 188 0.0 0.0 0.00 0.00 0.00 99 1015.0
20260901091341 70 188 0.0 0.0 0.00 0.00 0.00 99 1015.0
20260901090836 70 188 0.0 0.0 0.00 0.00 0.00 99 1014.8
20260901090331 70 188 0.0 0.0 0.00 0.00 0.00 99 1015.0
20260901085827 70 188 0.0 0.0 0.00 0.00 0.00 99 1015.0
20260901085322 70 188 0.0 0.0 0.00 0.00 0.00 99 1015.1
20260901084819 70 188 0.0 0.0 0.00 0.00 0.00 99 1015.0
20260901084314 70 188 0.0 0.0 0.00 0.00 0.00 99 1014.8
20260901083815 70 188 0.0 0.0 0.00 0.00 0.00 99 1015.0
20260901083309 70 188 0.0 0.0 0.00 0.00 0.00 99 1015.1
20260901082807 70 188 0.0 0.0 0.00 0.00 0.00 99 1014.9
20260901082306 70 188 0.0 0.0 0.00 0.00 0.00 99 1015.0
20260901081757 71 188 0.0 0.0 0.00 0.00 0.00 99 1015.1
20260901081258 71 188 0.0 0.0 0.00 0.00 0.00 99 1015.0
20260901080753 71 188 0.0 0.0 0.00 0.00 0.00 99 1015.2
20260901080252 71 188 0.0 0.0 0.00 0.00 0.00 99 1015.2
20260901075747 71 188 0.0 0.0 0.00 0.00 0.00 99 1015.2
20260901075241 71 188 0.0 0.0 0.00 0.00 0.00 99 1015.1
20260901074736 71 188 0.0 0.0 0.00 0.00 0.00 99 1015.2
20260901074231 71 188 0.0 0.0 0.00 0.00 0.00 99 1015.1
20260901073727 71 188 0.0 0.0 0.00 0.00 0.00 99 1015.0
20260901073223 71 188 0.0 0.0 0.00 0.00 0.00 99 1015.2
20260901072718 71 188 0.0 0.0 0.00 0.00 0.00 99 1015.0
20260901072212 71 188 0.0 0.0 0.00 0.00 0.00 99 1015.3
20260901071713 71 188 0.0 0.0 0.00 0.00 0.00 99 1015.3
20260901071212 71 188 0.0 0.0 0.00 0.00 0.00 99 1015.4
20260901070701 71 188 0.0 0.0 0.00 0.00 0.00 99 1015.5
20260901070156 71 188 0.0 0.0 0.00 0.00 0.00 99 1015.4
20260901065655 71 188 0.0 0.0 0.00 0.00 0.00 99 1015.3
20260901065150 71 188 0.0 0.0 0.00 0.00 0.00 99 1015.2
20260901064647 71 188 0.0 0.0 0.00 0.00 0.00 99 1015.6
20260901064143 71 188 0.0 0.0 0.00 0.00 0.00 99 1015.7
20260901063640 71 188 0.0 0.0 0.00 0.00 0.00 99 1015.6
20260901063136 71 188 0.0 0.0 0.00 0.00 0.00 99 1015.6
20260901062631 71 188 0.0 0.0 0.00 0.00 0.00 99 1015.5
20260901062127 72 188 0.0 0.0 0.00 0.00 0.00 99 1015.6
20260901061623 71 188 0.0 0.0 0.00 0.00 0.00 99 1015.5
20260901061117 71 188 0.0 0.0 0.00 0.00 0.00 99 1015.8
20260901060618 71 188 0.0 0.0 0.00 0.00 0.00 99 1015.7
20260901060113 72 188 0.0 0.0 0.00 0.00 0.00 99 1015.7
20260901055608 71 188 0.0 0.0 0.00 0.00 0.00 99 1015.8
20260901055105 72 188 0.0 0.0 0.00 0.00 0.00 99 1015.7
20260901054601 72 188 0.0 0.0 0.00 0.00 0.00 99 1015.6
20260901054057 72 188 0.0 0.0 0.00 0.00 0.00 99 1015.7
20260901053553 72 188 0.0 0.0 0.00 0.00 0.00 99 1015.7
20260901053049 72 188 0.0 0.0 0.00 0.00 0.00 99 1015.7
20260901052543 72 188 0.0 0.0 0.00 0.00 0.00 99 1015.7
20260901052038 72 188 0.0 0.0 0.00 0.00 0.00 99 1015.8
20260901051533 72 188 0.0 0.0 0.00 0.00 0.00 99 1015.7
20260901051032 72 188 0.0 0.0 0.00 0.00 0.00 99 1015.7
20260901050527 72 188 0.0 0.0 0.00 0.00 0.00 99 1015.7
20260901050022 73 188 0.0 0.0 0.00 0.00 0.00 99 1015.4
20260901045518 73 189 0.0 0.0 0.00 0.00 0.00 99 1015.6
20260901045017 73 189 0.0 0.0 0.00 0.00 0.00 99 1015.5
20260901044514 73 189 0.0 0.0 0.00 0.00 0.00 99 1015.6
20260901044009 73 189 0.0 1.0 0.00 0.00 0.00 99 1015.6
20260901043505 73 189 0.0 0.0 0.00 0.00 0.00 99 1015.5
20260901043000 73 189 0.0 0.0 0.00 0.00 0.00 99 1015.4
20260901042459 73 189 0.0 0.0 0.00 0.00 0.00 99 1015.5
20260901041955 73 189 0.0 0.0 0.00 0.00 0.00 99 1015.3
20260901041450 73 189 0.0 0.0 0.00 0.00 0.00 99 1015.6
20260901040949 73 189 0.0 0.0 0.00 0.00 0.00 99 1015.5
20260901040444 73 189 0.0 0.0 0.00 0.00 0.00 99 1015.5
20260901035943 73 189 0.0 0.0 0.00 0.00 0.00 99 1015.5
20260901035442 73 189 0.0 0.0 0.00 0.00 0.00 99 1015.5
20260901034941 73 189 0.0 0.0 0.00 0.00 0.00 98 1015.4
20260901034435 73 189 0.0 0.0 0.00 0.00 0.00 98 1015.3
20260901033930 74 189 0.0 0.0 0.00 0.00 0.00 98 1015.3
20260901033429 74 189 0.0 0.0 0.00 0.00 0.00 98 1015.3
20260901032927 74 189 0.0 0.0 0.00 0.00 0.00 98 1015.2
20260901032422 74 189 0.0 0.0 0.00 0.00 0.00 98 1015.3
20260901031917 74 189 0.0 0.0 0.00 0.00 0.00 98 1015.4
20260901031413 74 189 0.0 0.0 0.00 0.00 0.00 98 1015.4
20260901030913 74 189 0.0 0.0 0.00 0.00 0.00 98 1015.4
20260901030408 74 189 0.0 0.0 0.00 0.00 0.00 98 1015.6
20260901025907 74 189 0.0 0.0 0.00 0.00 0.00 98 1015.6
20260901025402 74 189 0.0 0.0 0.00 0.00 0.00 98 1015.7
20260901024856 75 189 0.0 0.0 0.00 0.00 0.00 98 1015.6
20260901024355 75 189 0.0 0.0 0.00 0.00 0.00 98 1015.6
20260901023849 75 190 0.0 0.0 0.00 0.00 0.00 98 1015.7
20260901023344 75 190 0.0 0.0 0.00 0.00 0.00 98 1015.3
20260901022839 75 190 0.0 0.0 0.00 0.00 0.00 98 1015.5
20260901022335 75 190 0.0 0.0 0.00 0.00 0.00 98 1015.4
20260901021830 75 190 0.0 0.0 0.00 0.00 0.00 97 1015.5
20260901021326 75 190 0.0 0.0 0.00 0.00 0.00 97 1015.2
20260901020820 75 190 0.0 0.0 0.00 0.00 0.00 97 1015.3
20260901020315 75 190 0.0 0.0 0.00 0.00 0.00 97 1015.3
20260901015810 75 190 0.0 0.0 0.00 0.00 0.00 97 1015.4
20260901015307 75 190 0.0 0.0 0.00 0.00 0.00 97 1015.3
20260901014805 76 190 0.0 0.0 0.00 0.00 0.00 96 1015.4
20260901014301 76 189 0.0 0.0 0.00 0.00 0.00 96 1015.3
20260901013757 76 189 0.0 0.0 0.00 0.00 0.00 96 1015.2
20260901013252 76 189 0.0 0.0 0.00 0.00 0.00 96 1015.2
20260901012748 76 189 0.0 0.0 0.00 0.00 0.00 96 1015.1
20260901012248 77 189 0.0 0.0 0.00 0.00 0.00 95 1015.1
20260901011743 77 189 0.0 0.0 0.00 0.00 0.00 95 1014.9
20260901011239 77 189 0.0 0.0 0.00 0.00 0.00 95 1014.8
20260901010732 77 189 0.0 0.0 0.00 0.00 0.00 94 1014.7
20260901010227 77 189 0.0 0.0 0.00 0.00 0.00 94 1014.7
20260901005726 77 189 0.0 1.0 0.00 0.00 0.00 94 1014.6
20260901005221 77 191 1.0 1.0 0.00 0.00 0.00 94 1014.6
20260901004720 77 192 0.0 0.0 0.00 0.00 0.00 94 1014.7
20260901004210 78 192 0.0 0.0 0.00 0.00 0.00 94 1014.5
20260901003709 78 192 0.0 0.0 0.00 0.00 0.00 94 1014.6
20260901003209 78 192 0.0 0.0 0.00 0.00 0.00 93 1014.5
20260901002703 78 192 0.0 0.0 0.00 0.00 0.00 92 1014.4
20260901002158 79 189 1.0 1.0 0.00 0.00 0.00 92 1014.2
20260901001654 79 201 0.0 0.0 0.00 0.00 0.00 92 1014.3
20260901001148 79 203 0.0 0.0 0.00 0.00 0.00 91 1014.6
20260901000638 80 203 0.0 0.0 0.00 0.00 0.00 91 1014.5
20260901000133 80 203 0.0 0.0 0.00 0.00 0.00 90 1014.3
20260831235626 80 203 0.0 0.0 0.00 0.00 0.00 90 1014.4
20260831235122 81 203 0.0 0.0 0.00 0.00 0.00 89 1014.2
20260831234616 81 203 0.0 0.0 0.00 0.00 0.00 88 1014.2
20260831234112 82 203 0.0 0.0 0.00 0.00 0.00 87 1014.3
20260831233607 82 202 0.0 0.0 0.00 0.00 0.00 85 1014.3
20260831233102 83 202 0.0 0.0 0.00 0.00 0.00 84 1014.0
20260831232557 83 202 0.0 0.0 0.00 0.00 0.00 83 1014.1
20260831232053 84 202 0.0 0.0 0.00 0.00 0.00 82 1014.1
20260831231549 84 202 0.0 1.0 0.00 0.00 0.00 79 1014.2
20260831231050 85 202 0.0 0.0 0.00 0.00 0.00 79 1014.3
20260831230545 85 202 0.0 0.0 0.00 0.00 0.00 77 1014.4
20260831230040 86 203 0.0 0.0 0.00 0.00 0.00 75 1014.3
20260831225535 86 203 0.0 0.0 0.00 0.00 0.00 74 1014.1
20260831225030 86 203 0.0 0.0 0.00 0.00 0.00 74 1014.3
20260831224525 86 203 0.0 0.0 0.00 0.00 0.00 72 1014.1
20260831224021 86 204 0.0 1.0 0.00 0.00 0.00 73 1014.4
20260831223515 87 204 0.0 1.0 0.00 0.00 0.00 72 1014.6
20260831223012 87 204 0.0 0.0 0.00 0.00 0.00 70 1014.4
20260831222508 87 208 0.0 0.0 0.00 0.00 0.00 70 1014.5
20260831222007 87 208 0.0 0.0 0.00 0.00 0.00 70 1014.3
20260831221503 87 208 0.0 1.0 0.00 0.00 0.00 69 1014.5
20260831220958 87 209 0.0 0.0 0.00 0.00 0.00 68 1014.5
20260831220454 87 215 0.0 0.0 0.00 0.00 0.00 68 1014.5
20260831215949 87 224 0.0 0.0 0.00 0.00 0.00 68 1014.6
20260831215444 88 248 0.0 0.0 0.00 0.00 0.00 69 1014.4
20260831214940 88 241 0.0 0.0 0.00 0.00 0.00 69 1014.5
20260831214438 89 213 0.0 0.0 0.00 0.00 0.00 64 1014.6
20260831213933 89 198 1.0 1.0 0.00 0.00 0.00 65 1014.7
20260831213430 89 192 1.0 1.0 0.00 0.00 0.00 63 1014.6
20260831212929 90 207 0.0 1.0 0.00 0.00 0.00 63 1014.7
20260831212426 90 230 0.0 0.0 0.00 0.00 0.00 61 1014.7
20260831211925 89 217 0.0 0.0 0.00 0.00 0.00 63 1014.6
20260831211420 90 230 0.0 1.0 0.00 0.00 0.00 64 1014.7
20260831210914 90 223 0.0 1.0 0.00 0.00 0.00 66 1014.4
20260831210409 91 216 1.0 1.0 0.00 0.00 0.00 63 1014.6
20260831205905 91 221 0.0 1.0 0.00 0.00 0.00 62 1014.7
20260831205401 91 213 0.0 1.0 0.00 0.00 0.00 60 1014.6
20260831204855 91 213 1.0 1.0 0.00 0.00 0.00 61 1014.8
20260831204354 93 215 0.0 1.0 0.00 0.00 0.00 57 1014.8
20260831203854 94 232 0.0 0.0 0.00 0.00 0.00 53 1014.8
20260831203348 93 231 0.0 0.0 0.00 0.00 0.00 56 1014.7
20260831202846 93 220 0.0 0.0 0.00 0.00 0.00 55 1014.7
20260831202342 92 244 1.0 1.0 0.00 0.00 0.00 59 1014.9
20260831201836 94 191 1.0 1.0 0.00 0.00 0.00 56 1014.9
20260831201335 93 228 0.0 1.0 0.00 0.00 0.00 56 1014.9
20260831200831 93 198 0.0 1.0 0.00 0.00 0.00 60 1015.1
20260831200326 95 57 1.0 1.0 0.00 0.00 0.00 54 1014.9
20260831195821 94 15 0.0 1.0 0.00 0.00 0.00 51 1015.2
20260831195317 96 248 0.0 1.0 0.00 0.00 0.00 46 1015.3
20260831194813 96 241 1.0 1.0 0.00 0.00 0.00 48 1015.3
20260831194308 94 214 1.0 1.0 0.00 0.00 0.00 50 1015.4
20260831193806 93 220 2.0 2.0 0.00 0.00 0.00 50 1015.5
20260831193302 92 226 1.0 2.0 0.00 0.00 0.00 54 1015.4
20260831192757 92 275 3.0 3.0 0.00 0.00 0.00 54 1015.3
20260831192252 92 256 2.0 2.0 0.00 0.00 0.00 54 1015.3
20260831191748 91 256 0.0 1.0 0.00 0.00 0.00 54 1015.5
20260831191244 91 271 1.0 2.0 0.00 0.00 0.00 56 1015.3
20260831190738 91 278 2.0 2.0 0.00 0.00 0.00 55 1015.4
20260831190233 94 261 3.0 3.0 0.00 0.00 0.00 52 1015.6
20260831185728 95 206 3.0 3.0 0.00 0.00 0.00 52 1015.7
20260831185223 95 229 3.0 3.0 0.00 0.00 0.00 52 1015.6
20260831184722 94 225 0.0 1.0 0.00 0.00 0.00 56 1015.7
20260831184218 93 216 1.0 1.0 0.00 0.00 0.00 55 1015.8
20260831183717 93 285 2.0 2.0 0.00 0.00 0.00 56 1015.8
20260831183212 93 227 2.0 2.0 0.00 0.00 0.00 55 1015.9
20260831182711 92 249 1.0 1.0 0.00 0.00 0.00 55 1016.0
20260831182206 93 17 2.0 3.0 0.00 0.00 0.00 55 1016.1
20260831181701 92 144 1.0 1.0 0.00 0.00 0.00 53 1016.2
20260831181155 93 237 2.0 2.0 0.00 0.00 0.00 54 1016.1
20260831180651 93 180 2.0 2.0 0.00 0.00 0.00 55 1016.0
20260831180145 92 224 0.0 1.0 0.00 0.00 0.00 57 1016.2
20260831175645 93 214 1.0 1.0 0.00 0.00 0.00 56 1016.3
20260831175142 92 219 1.0 1.0 0.00 0.00 0.00 57 1016.5
20260831174637 92 206 1.0 1.0 0.00 0.00 0.00 59 1016.7
20260831174132 91 236 1.0 1.0 0.00 0.00 0.00 60 1016.3
20260831173630 90 203 1.0 2.0 0.00 0.00 0.00 61 1016.6
20260831173126 90 279 3.0 5.0 0.00 0.00 0.00 61 1016.4
20260831172621 90 254 2.0 2.0 0.00 0.00 0.00 61 1016.7
20260831172120 90 188 1.0 1.0 0.00 0.00 0.00 64 1016.4
20260831171615 89 234 0.0 0.0 0.00 0.00 0.00 61 1016.8
20260831171113 91 242 1.0 1.0 0.00 0.00 0.00 61 1016.5
20260831170609 91 252 0.0 0.0 0.00 0.00 0.00 60 1016.7
20260831170106 89 229 0.0 0.0 0.00 0.00 0.00 63 1016.6
20260831165601 89 269 3.0 3.0 0.00 0.00 0.00 65 1016.6
20260831165058 89 226 1.0 1.0 0.00 0.00 0.00 66 1016.7
20260831164554 89 85 2.0 3.0 0.00 0.00 0.00 66 1016.7
20260831164049 90 204 1.0 1.0 0.00 0.00 0.00 64 1016.7
20260831163544 89 271 1.0 2.0 0.00 0.00 0.00 64 1017.1
20260831163040 89 254 2.0 2.0 0.00 0.00 0.00 66 1016.8
20260831162538 88 238 0.0 1.0 0.00 0.00 0.00 68 1017.1
20260831162036 89 262 2.0 2.0 0.00 0.00 0.00 67 1017.0
20260831161533 88 232 0.0 0.0 0.00 0.00 0.00 66 1017.3